Regional Weather Roundup
Issued by NWS

Home | Current Version | Previous Version | Graphics & Text | Print | Product List | Glossary On
Versions: 1 2 3 4 5 6 7 8 9 10 11 12 13 14 15 16 17 18 19 20 21 22 23 24 25 26 27 28 29 30 31 32 33 34 35 36 37 38 39 40 41 42 43 44 45 46 47 48 49 50
000
ASUS43 KIND 221509
RWRIN

WEATHER ROUNDUP FOR INDIANA
NATIONAL WEATHER SERVICE INDIANAPOLIS IN
1000 AM EST WED FEB 22 2017

NOTE: "FAIR" INDICATES FEW OR NO CLOUDS BELOW 12,000 FEET WITH NO
SIGNIFICANT WEATHER AND/OR OBSTRUCTIONS TO VISIBILITY.

* - STATION DOES NOT REPORT WEATHER SUCH AS PRECIPITATION OR FOG.

+ - STATION NOT QUALITY CONTROLLED BY THE NATIONAL WEATHER SERVICE.
    USE DATA WITH CAUTION...ESPECIALLY DEWPOINT AND RELATIVE
    HUMIDITY OBSERVATIONS.

INZ001>003-010>013-019-020-221600-
NORTHWEST INDIANA

CITY           SKY/WX    TMP DP  RH WIND       PRES   REMARKS
GARY /AIRPORT/ CLOUDY    55  54  94 S6        29.81F FOG
KNOX *+        CLOUDY    54  48  82 S10       29.82F
LA PORTE +     CLOUDY    54  52  95 SW10      29.82F FOG
MICHIGAN CITY+ MOSUNNY   55  54  94 S9        29.81F FOG
MONTICELLO +   FOG       53  51  95 S8        29.85S VSB 1/4
RENSSELAER +   FOG       50  50 100 S8        29.83F VSB 1/4
VALPARAISO     FOG       54  53  97 S10       29.82S VSB 1

$$

LMZ046-743>745-221600-
SOUTHERN LAKE MICHIGAN

STATION/POSITION TIME  TEMP    WIND        PRES    WAVE
                       AIR SEA DIR/SP/G            HT
                 (UTC) (F)     (DEG/KT/KT) (MB)    (FT)
BURNS HARBOR     1440   53     190/ 12/ 15 1009.8F
MICHIGAN CITY    1440   54     170/ 11/ 13   N/A

$$

INZ004-005-014>016-021>024-221600-
NORTH CENTRAL INDIANA

CITY           SKY/WX    TMP DP  RH WIND       PRES   REMARKS
ELKHART        CLOUDY    54  52  94 S7        29.83F FOG
GOSHEN         CLOUDY    56  52  86 SW10      29.84F FOG
LOGANSPORT +   FOG       52  52 100 S10       29.87S VSB 1/4
PERU/GRISSOM   CLOUDY    55  55 100 SW8       29.85S FOG
ROCHESTER +    CLOUDY    55  55 100 S6        29.86S FOG
SOUTH BEND     PTSUNNY   55  53  93 S14       29.82F FOG
WARSAW +       CLOUDY    55  52  88 S7        29.85F FOG

$$

INZ006>009-017-018-025>027-221600-
NORTHEAST INDIANA

CITY           SKY/WX    TMP DP  RH WIND       PRES   REMARKS
ANGOLA *+      CLOUDY    54  54 100 S7        29.84F
AUBURN +       CLOUDY    55  52  88 S6        29.87F FOG
FORT WAYNE     CLOUDY    56  53  90 S7        29.86F FOG
HUNTINGTON +   CLOUDY    55  53  95 S3        29.86F FOG
KENDALLVILLE + CLOUDY    55  54  98 S8        29.85F FOG

$$

INZ028-029-035-036-043>045-051>053-221600-
WEST CENTRAL INDIANA

CITY           SKY/WX    TMP DP  RH WIND       PRES   REMARKS
GREENCASTLE +  CLOUDY    54  54 100 CALM      29.89S FOG
LAFAYETTE      CLOUDY    53  53 100 SW7       29.86S FOG
TERRE HAUTE    FOG       55  54  96 S8        29.89F VSB 3/4

$$

INZ030>032-037>040-046>048-054>057-064-065-221600-
CENTRAL INDIANA

CITY           SKY/WX    TMP DP  RH WIND       PRES   REMARKS
ANDERSON       CLOUDY    57  54  88 S6        29.89F FOG
CP ATTERBURY + CLOUDY    57  54  88 SW6       29.91S
COLUMBUS       CLOUDY    55  55 100 S10       29.90F FOG
FRANKFORT +    FOG       56  55  97 SW9       29.89S VSB<1/4
GREENWOOD *+   CLOUDY    57  57 100 S5        29.90S
INDIANAPOLIS   CLOUDY    56  54  93 SW9       29.89F FOG
-EAGLE CREEK   CLOUDY    56  54  93 SW5       29.88F FOG
KOKOMO +       CLOUDY    55  55 100 S8        29.87F FOG
MARION +       CLOUDY    55  55  97 S12       29.88F FOG
MT COMFORT *+  CLOUDY    55  54  94 S8        29.89F
SHELBYVILLE    CLOUDY    58  54  86 S12       29.89F FOG
ZIONSVILLE +   FOG       54  54 100 S10       29.89S VSB 3/4

$$

INZ033-034-041-042-049-050-058-059-221600-
EAST CENTRAL INDIANA

CITY           SKY/WX    TMP DP  RH WIND       PRES   REMARKS
MUNCIE         CLOUDY    58  54  86 S8        29.88F FOG

$$

INZ060-061-067>069-081>083-085>088-221600-
SOUTHWEST INDIANA

CITY           SKY/WX    TMP DP  RH WIND       PRES   REMARKS
EVANSVILLE     PTSUNNY   59  55  87 SW3       29.92S FOG
HUNTINGBURG *+ CLOUDY    59  55  88 S5        29.92S
WASHINGTON +   FOG       56  54  94 S6        29.90F VSB 1/2

$$

INZ062-063-066-070>080-084-089>092-221600-
SOUTH CENTRAL AND SOUTHEAST INDIANA

CITY           SKY/WX    TMP DP  RH WIND       PRES   REMARKS
BEDFORD +      CLOUDY   N/A N/A N/A S3        29.91
BLOOMINGTON    CLOUDY    57  54  89 SW7       29.90F FOG
MADISON *+     CLOUDY    57  54  88 S5        29.94S
NORTH VERNON + CLOUDY   N/A N/A N/A S6        29.93S
SEYMOUR +      CLOUDY    59  57  94 S5        29.91F FOG

$$





USA.gov is the U.S. government's official web portal to all federal, state and local government web resources and services.